Regional Weather Roundup
Issued by NWS Upton, NY

Current Version | Previous Version | Text Only | Print | Product List | Glossary On
Versions: 1 2 3 4 5 6 7 8 9 10 11 12 13 14 15 16 17 18 19 20 21 22 23 24 25 26 27
000
ASUS41 KOKX 240308
RWROKX

REGIONAL WEATHER ROUNDUP
NATIONAL WEATHER SERVICE NEW YORK NY
1000 PM EST MON JAN 23 2017

NOTE: "FAIR" INDICATES FEW OR NO CLOUDS BELOW 12,000 FEET WITH NO
SIGNIFICANT WEATHER AND/OR OBSTRUCTIONS TO VISIBILITY.

NYZ071-072-176-178-NJZ106-104-240400-
NEW YORK CITY METRO AREA

CITY           SKY/WX    TMP DP  RH WIND       PRES   REMARKS
Central Park   RAIN      36  35  96 NE17G25   29.58F FOG     WCI  26
Wall St Helipt CLOUDY    37  36  93 NE26G35   29.56F WCI  26
LaGuardia APRT RAIN      39  35  86 NE29G40   29.56F FOG     WCI  27
Kennedy INTL   LGT RAIN  38  35  89 NE25G39   29.55F WCI  27
Breezy Point     N/A     36 N/A N/A NE21G32     N/A  WCI  24
Newark/Liberty RAIN      38  35  89 NE25G33   29.56F FOG     WCI  27
Teterboro      RAIN      38  34  85 NE8G20    29.57F FOG     WCI  32
$$

NYZ177-179-078>081-240400-
LONG ISLAND NEW YORK

CITY           SKY/WX    TMP DP  RH WIND       PRES   REMARKS
Jones Beach      N/A     37 N/A N/A NE30G40     N/A  WCI  25
Matinecock PT  NOT AVBL
Farmingdale    RAIN      38  35  89 NE24G39   29.53F WCI  27
MacArthur/ISP  LGT RAIN  38  36  92 NE24G41   29.53F FOG     WCI  27
Shirley        RAIN      38  37  97 NE14G29   29.55F FOG     WCI  30
Westhampton    RAIN      38  36  92 NE23G38   29.57F FOG     WCI  27
Southampton    NOT AVBL
Bridgehampton  NOT AVBL
East Hampton   LGT RAIN  38  37  94 NE23G32   29.59F WCI  28
Montauk          N/A     40  39  97 NE21G35   29.60F WCI  30
$$

NYZ052-065-067-240400-
HUDSON VALLEY

CITY           SKY/WX    TMP DP  RH WIND       PRES   REMARKS
White Plains   RAIN      36  32  85 NE16G30   29.56F WCI  26
Newburgh       LGTSLEET  34  32  93 NE17G25   29.65  WCI  23
Montgomery     FRZ RAIN  33  31  92 NE18G26   29.62F FOG     WCI  22
Poughkeepsie   RAIN      33  31  92 N12       29.67F FOG     WCI  24
Albany         LGTSLEET  33  27  78 N8        29.81F WCI  26
$$

NJZ001-105-106-008-010-013-015-019>022-104-240400-
NEW JERSEY

CITY           SKY/WX    TMP DP  RH WIND       PRES   REMARKS
Newark/Liberty RAIN      38  35  89 NE25G33   29.56F FOG     WCI  27
Teterboro      RAIN      38  34  85 NE8G20    29.57F FOG     WCI  32
Caldwell       RAIN      36  33  89 NE12G25   29.58F FOG     WCI  28
Somerville     LGT RAIN  37  33  85 NE12G29   29.53F WCI  29
Linden         LGT RAIN  38  35  89 E16G25    29.56F WCI  28
Sussex         RAIN      33  32  96 NE16G26   29.59F FOG     WCI  23
Andover          N/A     33  31  92 NE10G24   29.55F WCI  25
Trenton        CLOUDY    37  34  89 NE17G38   29.49F WCI  27
Millville      CLOUDY    41  38  89 NE30G44   29.33F
Atlantic City  RAIN      41  37  86 NE32G46   29.33F FOG
Wrightstown    RAIN      38  35  91 NE26G37   29.44F FOG     WCI  26
Toms River     LGT RAIN  38  36  92 NE25G37   29.48F WCI  27
Belmar         RAIN      37  36  96 N21G29    29.50F WCI  26
$$

PAZ047>061-062-071-240400-
EASTERN PENNSYLVANIA

CITY           SKY/WX    TMP DP  RH WIND       PRES   REMARKS
Philadelphia   LGT RAIN  39  34  82 NE29G51   29.41F WCI  27
Allentown      LGT RAIN  37  31  78 NE22G30   29.53F WCI  26
Scranton       LGT RAIN  35  33  92 NE9       29.56F WCI  28
$$

CTZ002-004>006-009-010-012-RIZ004-006-007-MAZ004-011-015-240400-
SOUTHERN NEW ENGLAND
 IN CT

CITY           SKY/WX    TMP DP  RH WIND       PRES   REMARKS
Bradley INTL   SLEET     33  31  92 N18       29.74F FOG     WCI  22
Hartford       RAIN      34  32  92 N13       29.71F FOG     WCI  25
Danbury        RAIN      34  30  85 NE17G28   29.62F WCI  23
Wtrbury/Oxford CLOUDY    34  28  80 NE22G33   29.60F WCI  22
Bridgeport     LGT RAIN  38  33  82 NE23G35   29.61F WCI  27
Meriden        LGT RAIN  35  31  85 N13G22    29.67F FOG     WCI  26
New Haven      MIX PCPN  36  33  89 NE20G31   29.61F WCI  25
Chester        LGT RAIN  36  34  93 NE18G29   29.62F WCI  25
Groton         LGT RAIN  39  38  96 NE22G36   29.62F WCI  29
Wilimantic     RAIN      37  34  89 NE21G31   29.70F FOG     WCI  26

 IN RI

CITY           SKY/WX    TMP DP  RH WIND       PRES   REMARKS
Providence     RAIN      38  35  89 NE24G36   29.73F FOG     WCI  27
Block Island   NOT AVBL
Westerly       LGT RAIN  40  35  83 NE17G28   29.65F WCI  31
 IN MA

CITY           SKY/WX    TMP DP  RH WIND       PRES   REMARKS
Boston         RAIN      37  36  96 NE30G39   29.85F FOG     WCI  24
Worcester      LGT SNOW  31  29  92 NE13G35   29.76F VSB 1   WCI  21
Westfield      RAIN      33  30  88 N16G26    29.77F FOG     WCI  23
Provincetown   LGT RAIN  40  38  93 E31G45    29.77F FOG     WCI  28
Nantucket      RAIN      43  40  89 E26G43    29.62F FOG
$$

ANZ330-335-338-340-345-350-353-355-240400-
COASTAL MARINE OBSERVATIONS


STATION/POSITION TIME  SKY/WX   TEMP    WIND        PRES    VSBY  WAVE
                                AIR SEA DIR/SP/G                  HT/PER
                 (UTC)          (F)     (DEG/KT/KT) (MB)    (MI)  (FT/S)
NY HARB ENTRANCE 0150            40 43   40/ 29/ 39  999.3         14/11
20 S FIRE ISLAND 0150            42 44   50/ 35/ 43  997.4         17/11
GREAT SOUTH BAY  NOT AVBL
23 SSW MONTAUK P 0150            43 45   60/ 33/ 41 1000.5         18/11
15 E BARNEGAT LI 0230               47                N/A          17/12
HUDSON CANYON    0150            53 51               992.4         22/11
KINGS POINT      NOT AVBL
EXECUTION ROCKS  0245            38      50/ 23/ 31   N/A
CENTRAL LI SOUND 0200            38      60/ 23/ 29   N/A           4/ 5
EASTERN LI SOUND NOT AVBL
ROBBINS REEF     0236            38      40/ 28/ 36 1000.9
$$


>>>>>>>>>>>>>>>>>>>>>>>>>>>> KEY <<<<<<<<<<<<<<<<<<<<<<<<<<<
>                                                          <
>     SKY/WX - Sky Condition/Present Weather               <
>     TMP    - Temperature in Fahrenheit                   <
>     DP     - Dew Point in Fahrenheit                     <
>     RH     - Relative Humidity in Percent                <
>     WIND   - Direction (from) and Speed in MPH           <
>     PRES   - Mean Sea Level Pressure (inches of Hg)      <
>     WCI    - Wind Chill Index                            <
>     VSB    - VISIBILITY IN MILES                         <
>     HX     - HEAT INDEX                                  <
>     TC     - TEMPERATURE IN CELSIUS                      <
>     VRB    - VARIABLE WIND DIRECTION                     <
>                                                          <
>>>>>>>>>>>>>>>>>>>>>>>>>>>> KEY <<<<<<<<<<<<<<<<<<<<<<<<<<<




USA.gov is the U.S. government's official web portal to all federal, state and local government web resources and services.